User: anonymous   Login
Location: Clanezzo
(45.7500°N, 9.6000°E)
Time: 12:11:31
(UTC+00:00)
Language:

Cosmos 1777 Rocket - Orbit

View from above orbital plane
View from above orbital plane
View from above satellite
View from above satellite

Ground track
Ground track

The orbit data is extracted from the following two-line orbital elements,

1 16953U 86070B   21211.75682094  .00000081  00000-0  35801-4 0  9993
2 16953  74.0122  23.9292 0013105 247.7127 112.2637 14.37430217827998
Epoch (UTC): 30 July 2021 18:09:49
Eccentricity: 0.0013105
inclination: 74.0122°
perigee height: 757 km
apogee height: 776 km
right ascension of ascending node: 23.9292°
argument of perigee: 247.7127°
revolutions per day: 14.37430217
mean anomaly at epoch: 112.2637°
orbit number at epoch: 82799

The dashed part of the orbit path shows where the satellite is in the earth's shadow,  

DLR